contact:dominique.lefevre@mio.osupytheas.fr, maurice.libes@osupytheas.fr, didier.mallarino@osupytheas.fr
Project:EMSO http://www.emso-fr.org/EMSO-France
Depth: 2436.0 m
Title:EMSO Ligure Ouest : Data MII capteur CSTAR
DateTime,Latitude,Longitude,Instrument_Serial,Reference_Counts,Signal_Counts,Corrected_Signal_raw_counts,Calculated_Beam_c_inverse_meters,Internal_thermistor_counts
DateTime,Latitude,Longitude,Instrument_Serial,Reference_Counts,Signal_Counts,Corrected_Signal_raw_counts,Calculated_Beam_c_inverse_meters,Internal_thermistor_counts
2019-07-15T00:01:55,42.805,6.029,CST-1368DR,8656,12110,15472,0.037,551
2019-07-15T00:04:57,42.805,6.029,CST-1368DR,8656,12109,15471,0.037,551
2019-07-15T00:07:58,42.805,6.029,CST-1368DR,8656,12108,15470,0.038,551
2019-07-15T00:11:00,42.805,6.029,CST-1368DR,8656,12107,15468,0.038,551
2019-07-15T00:14:01,42.805,6.029,CST-1368DR,8656,12108,15469,0.038,551
2019-07-15T00:17:03,42.805,6.029,CST-1368DR,8656,12108,15470,0.038,551
2019-07-15T00:20:05,42.805,6.029,CST-1368DR,8656,12107,15468,0.038,551
2019-07-15T00:23:06,42.805,6.029,CST-1368DR,8656,12109,15470,0.038,551
2019-07-15T00:26:08,42.805,6.029,CST-1368DR,8656,12110,15472,0.037,551
2019-07-15T00:29:10,42.805,6.029,CST-1368DR,8656,12108,15470,0.038,550
2019-07-15T00:32:11,42.805,6.029,CST-1368DR,8656,12110,15472,0.037,551
2019-07-15T00:35:13,42.805,6.029,CST-1368DR,8656,12107,15469,0.038,551
2019-07-15T00:38:15,42.805,6.029,CST-1368DR,8656,12110,15472,0.037,551
2019-07-15T00:41:16,42.805,6.029,CST-1368DR,8656,12111,15473,0.037,551
2019-07-15T00:44:18,42.805,6.029,CST-1368DR,8656,12110,15472,0.037,551
2019-07-15T00:47:19,42.805,6.029,CST-1368DR,8656,12108,15469,0.038,551
2019-07-15T00:50:21,42.805,6.029,CST-1368DR,8656,12110,15472,0.037,551
2019-07-15T00:53:23,42.805,6.029,CST-1368DR,8656,12108,15469,0.038,551
2019-07-15T00:56:24,42.805,6.029,CST-1368DR,8656,12106,15467,0.038,551
2019-07-15T00:59:26,42.805,6.029,CST-1368DR,8656,12109,15470,0.038,551
2019-07-15T01:02:28,42.805,6.029,CST-1368DR,8656,12107,15468,0.038,550
2019-07-15T01:05:29,42.805,6.029,CST-1368DR,8656,12108,15469,0.038,551
2019-07-15T01:08:31,42.805,6.029,CST-1368DR,8655,12108,15472,0.037,551
2019-07-15T01:11:33,42.805,6.029,CST-1368DR,8655,12110,15473,0.037,550
2019-07-15T01:14:34,42.805,6.029,CST-1368DR,8655,12108,15472,0.037,551
2019-07-15T01:17:36,42.805,6.029,CST-1368DR,8655,12107,15470,0.038,551
2019-07-15T01:20:37,42.805,6.029,CST-1368DR,8655,12108,15471,0.037,551
2019-07-15T01:23:39,42.805,6.029,CST-1368DR,8655,12107,15469,0.038,551
2019-07-15T01:26:41,42.805,6.029,CST-1368DR,8655,12106,15468,0.038,551
2019-07-15T01:29:42,42.805,6.029,CST-1368DR,8655,12108,15471,0.037,551
2019-07-15T01:32:44,42.805,6.029,CST-1368DR,8655,12109,15472,0.037,551
2019-07-15T01:35:46,42.805,6.029,CST-1368DR,8655,12108,15471,0.037,551
2019-07-15T01:38:47,42.805,6.029,CST-1368DR,8655,12106,15468,0.038,551
2019-07-15T01:41:49,42.805,6.029,CST-1368DR,8655,12107,15469,0.038,551
2019-07-15T01:44:50,42.805,6.029,CST-1368DR,8655,12109,15473,0.037,551
2019-07-15T01:47:52,42.805,6.029,CST-1368DR,8655,12108,15472,0.037,551
2019-07-15T01:50:54,42.805,6.029,CST-1368DR,8655,12108,15472,0.037,551
2019-07-15T01:53:55,42.805,6.029,CST-1368DR,8655,12108,15471,0.037,550
2019-07-15T01:56:57,42.805,6.029,CST-1368DR,8655,12108,15472,0.037,551
2019-07-15T01:59:59,42.805,6.029,CST-1368DR,8655,12108,15471,0.037,551
2019-07-15T02:03:00,42.805,6.029,CST-1368DR,8655,12108,15471,0.037,551
2019-07-15T02:06:02,42.805,6.029,CST-1368DR,8655,12095,15455,0.041,551
2019-07-15T02:09:04,42.805,6.029,CST-1368DR,8655,12109,15473,0.037,551
2019-07-15T02:12:05,42.805,6.029,CST-1368DR,8655,12108,15471,0.037,551
2019-07-15T02:15:07,42.805,6.029,CST-1368DR,8655,12105,15467,0.038,551
2019-07-15T02:18:09,42.805,6.029,CST-1368DR,8655,12106,15469,0.038,551
2019-07-15T02:21:10,42.805,6.029,CST-1368DR,8655,12107,15470,0.038,551
2019-07-15T02:24:12,42.805,6.029,CST-1368DR,8655,12108,15471,0.037,551
2019-07-15T02:27:14,42.805,6.029,CST-1368DR,8655,12102,15464,0.039,551
2019-07-15T02:30:15,42.805,6.029,CST-1368DR,8655,12107,15470,0.038,551
2019-07-15T02:33:17,42.805,6.029,CST-1368DR,8655,12108,15471,0.037,550
2019-07-15T02:36:19,42.805,6.029,CST-1368DR,8655,12104,15466,0.039,551
2019-07-15T02:39:20,42.805,6.029,CST-1368DR,8655,12107,15470,0.038,551
2019-07-15T02:42:22,42.805,6.029,CST-1368DR,8655,12107,15469,0.038,551
2019-07-15T02:45:24,42.805,6.029,CST-1368DR,8655,12105,15468,0.038,551
2019-07-15T02:48:25,42.805,6.029,CST-1368DR,8655,12107,15470,0.038,551
2019-07-15T02:51:27,42.805,6.029,CST-1368DR,8655,12104,15465,0.039,550
2019-07-15T02:54:29,42.805,6.029,CST-1368DR,8655,12107,15469,0.038,551
2019-07-15T02:57:30,42.805,6.029,CST-1368DR,8655,12107,15470,0.038,551
2019-07-15T03:00:32,42.805,6.029,CST-1368DR,8654,12107,15471,0.037,551
2019-07-15T03:03:34,42.805,6.029,CST-1368DR,8654,12106,15470,0.038,551
2019-07-15T03:06:35,42.805,6.029,CST-1368DR,8654,12107,15471,0.037,551
2019-07-15T03:09:37,42.805,6.029,CST-1368DR,8654,12107,15471,0.037,551
2019-07-15T03:12:38,42.805,6.029,CST-1368DR,8654,12105,15468,0.038,550
2019-07-15T03:15:40,42.805,6.029,CST-1368DR,8654,12105,15469,0.038,551
2019-07-15T03:18:42,42.805,6.029,CST-1368DR,8654,12105,15468,0.038,551
2019-07-15T03:21:43,42.805,6.029,CST-1368DR,8654,12106,15471,0.037,550
2019-07-15T03:24:45,42.805,6.029,CST-1368DR,8654,12107,15472,0.037,551
2019-07-15T03:27:47,42.805,6.029,CST-1368DR,8654,12105,15469,0.038,551
2019-07-15T03:30:48,42.805,6.029,CST-1368DR,8654,12106,15470,0.038,551
2019-07-15T03:33:50,42.805,6.029,CST-1368DR,8654,12086,15445,0.044,551
2019-07-15T03:36:52,42.805,6.029,CST-1368DR,8654,12103,15466,0.039,551
2019-07-15T03:39:53,42.805,6.029,CST-1368DR,8654,12102,15466,0.039,551
2019-07-15T03:42:55,42.805,6.029,CST-1368DR,8654,12102,15465,0.039,551
2019-07-15T03:45:57,42.805,6.029,CST-1368DR,8654,12103,15466,0.039,551
2019-07-15T03:48:58,42.805,6.029,CST-1368DR,8654,12101,15464,0.039,551
2019-07-15T03:52:00,42.805,6.029,CST-1368DR,8654,12105,15469,0.038,551
2019-07-15T03:55:02,42.805,6.029,CST-1368DR,8654,12088,15448,0.043,551
2019-07-15T03:58:03,42.805,6.029,CST-1368DR,8654,12106,15470,0.038,551
2019-07-15T04:01:05,42.805,6.029,CST-1368DR,8654,12106,15470,0.038,551
2019-07-15T04:04:07,42.805,6.029,CST-1368DR,8654,12105,15469,0.038,551
2019-07-15T04:07:09,42.805,6.029,CST-1368DR,8654,12104,15468,0.038,551
2019-07-15T04:10:10,42.805,6.029,CST-1368DR,8654,12105,15469,0.038,551
2019-07-15T04:13:12,42.805,6.029,CST-1368DR,8654,12104,15468,0.038,551
2019-07-15T04:16:14,42.805,6.029,CST-1368DR,8654,12105,15469,0.038,551
2019-07-15T04:19:16,42.805,6.029,CST-1368DR,8654,12105,15469,0.038,551
2019-07-15T04:22:18,42.805,6.029,CST-1368DR,8654,12105,15469,0.038,550
2019-07-15T04:25:19,42.805,6.029,CST-1368DR,8654,12104,15467,0.038,551
2019-07-15T04:28:21,42.805,6.029,CST-1368DR,8653,12105,15471,0.037,551
2019-07-15T04:31:23,42.805,6.029,CST-1368DR,8653,12103,15468,0.038,551
2019-07-15T04:34:25,42.805,6.029,CST-1368DR,8653,12103,15468,0.038,551
2019-07-15T04:37:27,42.805,6.029,CST-1368DR,8653,12104,15469,0.038,551
2019-07-15T04:40:28,42.805,6.029,CST-1368DR,8653,12105,15470,0.038,551
2019-07-15T04:43:30,42.805,6.029,CST-1368DR,8653,12105,15470,0.038,551
2019-07-15T04:46:32,42.805,6.029,CST-1368DR,8653,12101,15465,0.039,551
2019-07-15T04:49:34,42.805,6.029,CST-1368DR,8653,12105,15470,0.038,551
2019-07-15T04:52:35,42.805,6.029,CST-1368DR,8653,12105,15471,0.037,550
2019-07-15T04:55:37,42.805,6.029,CST-1368DR,8653,12104,15469,0.038,551
2019-07-15T04:58:39,42.805,6.029,CST-1368DR,8653,12103,15468,0.038,551
2019-07-15T05:01:41,42.805,6.029,CST-1368DR,8653,12102,15467,0.038,551
2019-07-15T05:04:43,42.805,6.029,CST-1368DR,8653,12103,15468,0.038,551
2019-07-15T05:07:44,42.805,6.029,CST-1368DR,8653,12103,15468,0.038,551
2019-07-15T05:10:46,42.805,6.029,CST-1368DR,8653,12103,15467,0.038,551
2019-07-15T05:13:48,42.805,6.029,CST-1368DR,8653,12102,15467,0.038,551
2019-07-15T05:16:50,42.805,6.029,CST-1368DR,8653,12103,15467,0.038,551
2019-07-15T05:19:52,42.805,6.029,CST-1368DR,8653,12105,15470,0.038,551
2019-07-15T05:22:53,42.805,6.029,CST-1368DR,8653,12100,15465,0.039,551
2019-07-15T05:25:55,42.805,6.029,CST-1368DR,8653,12105,15470,0.038,551
2019-07-15T05:28:57,42.805,6.029,CST-1368DR,8653,12104,15469,0.038,551
2019-07-15T05:31:59,42.805,6.029,CST-1368DR,8653,12104,15469,0.038,551
2019-07-15T05:35:00,42.805,6.029,CST-1368DR,8653,12104,15470,0.038,551
2019-07-15T05:38:02,42.805,6.029,CST-1368DR,8653,12101,15465,0.039,550
2019-07-15T05:41:04,42.805,6.029,CST-1368DR,8653,12100,15464,0.039,551
2019-07-15T05:44:06,42.805,6.029,CST-1368DR,8653,12103,15468,0.038,551
2019-07-15T05:47:08,42.805,6.029,CST-1368DR,8653,12098,15462,0.040,551
2019-07-15T05:50:09,42.805,6.029,CST-1368DR,8653,12100,15464,0.039,551
2019-07-15T05:53:11,42.805,6.029,CST-1368DR,8653,12104,15469,0.038,551
2019-07-15T05:56:13,42.805,6.029,CST-1368DR,8653,12104,15470,0.038,550
2019-07-15T05:59:15,42.805,6.029,CST-1368DR,8653,12105,15470,0.038,551
2019-07-15T06:02:16,42.805,6.029,CST-1368DR,8653,12105,15470,0.038,551
2019-07-15T06:05:18,42.805,6.029,CST-1368DR,8653,12104,15470,0.038,550
2019-07-15T06:08:20,42.805,6.029,CST-1368DR,8652,12104,15471,0.037,551
2019-07-15T06:11:22,42.805,6.029,CST-1368DR,8652,12102,15468,0.038,551
2019-07-15T06:14:24,42.805,6.029,CST-1368DR,8652,12104,15471,0.037,551
2019-07-15T06:17:25,42.805,6.029,CST-1368DR,8652,12103,15469,0.038,551
2019-07-15T06:20:27,42.805,6.029,CST-1368DR,8652,12103,15469,0.038,551
2019-07-15T06:23:29,42.805,6.029,CST-1368DR,8652,12105,15472,0.037,551
2019-07-15T06:26:31,42.805,6.029,CST-1368DR,8652,12103,15470,0.038,551
2019-07-15T06:29:33,42.805,6.029,CST-1368DR,8652,12104,15471,0.037,551
2019-07-15T06:32:34,42.805,6.029,CST-1368DR,8652,12104,15471,0.037,551
2019-07-15T06:35:36,42.805,6.029,CST-1368DR,8652,12103,15469,0.038,551
2019-07-15T06:38:38,42.805,6.029,CST-1368DR,8652,12097,15462,0.040,551
2019-07-15T06:41:40,42.805,6.029,CST-1368DR,8652,12104,15471,0.037,551
2019-07-15T06:44:41,42.805,6.029,CST-1368DR,8652,12103,15469,0.038,551
2019-07-15T06:47:43,42.805,6.029,CST-1368DR,8652,12103,15470,0.038,551
2019-07-15T06:50:45,42.805,6.029,CST-1368DR,8652,12104,15470,0.038,551
2019-07-15T06:53:47,42.805,6.029,CST-1368DR,8652,12101,15467,0.038,551
2019-07-15T06:56:48,42.805,6.029,CST-1368DR,8652,12103,15470,0.038,551
2019-07-15T06:59:50,42.805,6.029,CST-1368DR,8652,12105,15472,0.037,551
2019-07-15T07:02:52,42.805,6.029,CST-1368DR,8652,12100,15466,0.039,551
2019-07-15T07:05:54,42.805,6.029,CST-1368DR,8652,12099,15465,0.039,551
2019-07-15T07:08:55,42.805,6.029,CST-1368DR,8652,12103,15470,0.038,551
2019-07-15T07:11:57,42.805,6.029,CST-1368DR,8652,12098,15464,0.039,551
2019-07-15T07:14:59,42.805,6.029,CST-1368DR,8652,12103,15469,0.038,551
2019-07-15T07:18:01,42.805,6.029,CST-1368DR,8652,12079,15439,0.046,550
2019-07-15T07:21:03,42.805,6.029,CST-1368DR,8652,12102,15468,0.038,551
2019-07-15T07:24:05,42.805,6.029,CST-1368DR,8652,12104,15470,0.038,551
2019-07-15T07:27:06,42.805,6.029,CST-1368DR,8652,12101,15467,0.038,550
2019-07-15T07:30:08,42.805,6.029,CST-1368DR,8652,12104,15470,0.038,551
2019-07-15T07:33:10,42.805,6.029,CST-1368DR,8652,12101,15467,0.038,550
2019-07-15T07:36:12,42.805,6.029,CST-1368DR,8652,12101,15467,0.038,551
2019-07-15T07:39:14,42.805,6.029,CST-1368DR,8652,12101,15468,0.038,551
2019-07-15T07:42:15,42.805,6.029,CST-1368DR,8652,12102,15468,0.038,551
2019-07-15T07:45:17,42.805,6.029,CST-1368DR,8652,12102,15468,0.038,551
2019-07-15T07:48:19,42.805,6.029,CST-1368DR,8652,12103,15470,0.038,551
2019-07-15T07:51:21,42.805,6.029,CST-1368DR,8652,12104,15471,0.037,551
2019-07-15T07:54:23,42.805,6.029,CST-1368DR,8652,12103,15469,0.038,551
2019-07-15T07:57:24,42.805,6.029,CST-1368DR,8652,12103,15469,0.038,551
2019-07-15T08:00:26,42.805,6.029,CST-1368DR,8652,12103,15469,0.038,551
2019-07-15T08:03:28,42.805,6.029,CST-1368DR,8651,12103,15471,0.037,551
2019-07-15T08:06:30,42.805,6.029,CST-1368DR,8651,12101,15469,0.038,551
2019-07-15T08:09:31,42.805,6.029,CST-1368DR,8651,12103,15472,0.037,551
2019-07-15T08:12:33,42.805,6.029,CST-1368DR,8651,12102,15470,0.038,551
2019-07-15T08:15:35,42.805,6.029,CST-1368DR,8651,12102,15470,0.038,551
2019-07-15T08:18:37,42.805,6.029,CST-1368DR,8651,12102,15470,0.038,551
2019-07-15T08:21:39,42.805,6.029,CST-1368DR,8651,12101,15468,0.038,551
2019-07-15T08:24:41,42.805,6.029,CST-1368DR,8651,12103,15471,0.037,551
2019-07-15T08:27:42,42.805,6.029,CST-1368DR,8651,12101,15469,0.038,551
2019-07-15T08:30:44,42.805,6.029,CST-1368DR,8651,12100,15468,0.038,551
2019-07-15T08:33:46,42.805,6.029,CST-1368DR,8651,12100,15467,0.038,551
2019-07-15T08:36:48,42.805,6.029,CST-1368DR,8651,12098,15465,0.039,551
2019-07-15T08:39:50,42.805,6.029,CST-1368DR,8651,12101,15469,0.038,551
2019-07-15T08:42:51,42.805,6.029,CST-1368DR,8651,12100,15467,0.038,551
2019-07-15T08:45:53,42.805,6.029,CST-1368DR,8651,12102,15470,0.038,551
2019-07-15T08:48:55,42.805,6.029,CST-1368DR,8651,12102,15470,0.038,550
2019-07-15T08:51:57,42.805,6.029,CST-1368DR,8651,12098,15465,0.039,551
2019-07-15T08:54:58,42.805,6.029,CST-1368DR,8651,12100,15468,0.038,551
2019-07-15T08:58:00,42.805,6.029,CST-1368DR,8651,12103,15471,0.037,551
2019-07-15T09:01:02,42.805,6.029,CST-1368DR,8651,12101,15468,0.038,551
2019-07-15T09:04:04,42.805,6.029,CST-1368DR,8651,12102,15470,0.038,551
2019-07-15T09:07:05,42.805,6.029,CST-1368DR,8651,12100,15468,0.038,551
2019-07-15T09:10:07,42.805,6.029,CST-1368DR,8651,12101,15469,0.038,551
2019-07-15T09:13:09,42.805,6.029,CST-1368DR,8651,12101,15469,0.038,551
2019-07-15T09:16:11,42.805,6.029,CST-1368DR,8651,12101,15469,0.038,551
2019-07-15T09:19:13,42.805,6.029,CST-1368DR,8651,12098,15464,0.039,551
2019-07-15T09:22:14,42.805,6.029,CST-1368DR,8651,12098,15465,0.039,551
2019-07-15T09:25:16,42.805,6.029,CST-1368DR,8651,12101,15469,0.038,551
2019-07-15T09:28:18,42.805,6.029,CST-1368DR,8650,12100,15469,0.038,551
2019-07-15T09:31:20,42.805,6.029,CST-1368DR,8650,12090,15456,0.041,551
2019-07-15T09:34:21,42.805,6.029,CST-1368DR,8651,12101,15469,0.038,551
2019-07-15T09:37:23,42.805,6.029,CST-1368DR,8650,12102,15471,0.037,550
2019-07-15T09:40:25,42.805,6.029,CST-1368DR,8650,12098,15467,0.038,551
2019-07-15T09:43:27,42.805,6.029,CST-1368DR,8651,12101,15468,0.038,550
2019-07-15T09:46:29,42.805,6.029,CST-1368DR,8650,12101,15471,0.037,551
2019-07-15T09:49:31,42.805,6.029,CST-1368DR,8650,12101,15470,0.038,551
2019-07-15T09:52:33,42.805,6.029,CST-1368DR,8650,12096,15464,0.039,551
2019-07-15T09:55:34,42.805,6.029,CST-1368DR,8650,12101,15470,0.038,551
2019-07-15T09:58:36,42.805,6.029,CST-1368DR,8650,12101,15471,0.037,551
2019-07-15T10:01:38,42.805,6.029,CST-1368DR,8650,12101,15470,0.038,551
2019-07-15T10:04:40,42.805,6.029,CST-1368DR,8650,12098,15467,0.038,551
2019-07-15T10:07:41,42.805,6.029,CST-1368DR,8650,12101,15471,0.037,551
2019-07-15T10:10:43,42.805,6.029,CST-1368DR,8650,12100,15470,0.038,551
2019-07-15T10:13:45,42.805,6.029,CST-1368DR,8650,12099,15468,0.038,551
2019-07-15T10:16:47,42.805,6.029,CST-1368DR,8650,12100,15469,0.038,550
2019-07-15T10:19:49,42.805,6.029,CST-1368DR,8650,12096,15464,0.039,551
2019-07-15T10:22:50,42.805,6.029,CST-1368DR,8650,12097,15465,0.039,550
2019-07-15T10:25:52,42.805,6.029,CST-1368DR,8650,12097,15465,0.039,550
2019-07-15T10:28:54,42.805,6.029,CST-1368DR,8650,12097,15465,0.039,551
2019-07-15T10:31:55,42.805,6.029,CST-1368DR,8650,12096,15464,0.039,551
2019-07-15T10:34:57,42.805,6.029,CST-1368DR,8650,12093,15460,0.040,551
2019-07-15T10:37:58,42.805,6.029,CST-1368DR,8649,12097,15467,0.038,550
2019-07-15T10:41:00,42.805,6.029,CST-1368DR,8650,12097,15465,0.039,551
2019-07-15T10:44:02,42.805,6.029,CST-1368DR,8649,12093,15462,0.040,551
2019-07-15T10:47:03,42.805,6.029,CST-1368DR,8649,12088,15456,0.041,551
2019-07-15T10:50:05,42.805,6.029,CST-1368DR,8649,12098,15469,0.038,551
2019-07-15T10:53:07,42.805,6.029,CST-1368DR,8649,12098,15468,0.038,551
2019-07-15T10:56:08,42.805,6.029,CST-1368DR,8649,12097,15467,0.038,551
2019-07-15T10:59:10,42.805,6.029,CST-1368DR,8649,12100,15470,0.038,550
2019-07-15T11:02:11,42.805,6.029,CST-1368DR,8649,12098,15468,0.038,551
2019-07-15T11:05:13,42.805,6.029,CST-1368DR,8649,12098,15468,0.038,551
2019-07-15T11:08:15,42.805,6.029,CST-1368DR,8649,12094,15463,0.039,551
2019-07-15T11:11:16,42.805,6.029,CST-1368DR,8649,12094,15463,0.039,551
2019-07-15T11:14:18,42.805,6.029,CST-1368DR,8649,12098,15469,0.038,551
2019-07-15T11:17:20,42.805,6.029,CST-1368DR,8649,12094,15463,0.039,551
2019-07-15T11:20:21,42.805,6.029,CST-1368DR,8649,12099,15470,0.038,550
2019-07-15T11:23:23,42.805,6.029,CST-1368DR,8649,12096,15465,0.039,551
2019-07-15T11:26:25,42.805,6.029,CST-1368DR,8649,12099,15469,0.038,551
2019-07-15T11:29:26,42.805,6.029,CST-1368DR,8649,12096,15465,0.039,550
2019-07-15T11:32:28,42.805,6.029,CST-1368DR,8649,12095,15464,0.039,551
2019-07-15T11:35:30,42.805,6.029,CST-1368DR,8649,12099,15470,0.038,551
2019-07-15T11:38:31,42.805,6.029,CST-1368DR,8649,12090,15458,0.041,551
2019-07-15T11:41:33,42.805,6.029,CST-1368DR,8649,12091,15459,0.040,551
2019-07-15T11:44:34,42.805,6.029,CST-1368DR,8649,12094,15463,0.039,551
2019-07-15T11:47:36,42.805,6.029,CST-1368DR,8649,12092,15460,0.040,550
2019-07-15T11:50:38,42.805,6.029,CST-1368DR,8649,12093,15462,0.040,551
2019-07-15T11:53:39,42.805,6.029,CST-1368DR,8648,12080,15447,0.044,551
2019-07-15T11:56:41,42.805,6.029,CST-1368DR,8649,12091,15459,0.040,551
2019-07-15T11:59:43,42.805,6.029,CST-1368DR,8648,12091,15461,0.040,551
2019-07-15T12:02:44,42.805,6.029,CST-1368DR,8648,12092,15462,0.040,551
2019-07-15T12:05:46,42.805,6.029,CST-1368DR,8648,12096,15467,0.038,551
2019-07-15T12:08:48,42.805,6.029,CST-1368DR,8648,12092,15462,0.040,551
2019-07-15T12:11:49,42.805,6.029,CST-1368DR,8648,12094,15465,0.039,550
2019-07-15T12:14:51,42.805,6.029,CST-1368DR,8649,12096,15466,0.039,551
2019-07-15T12:17:53,42.805,6.029,CST-1368DR,8649,12098,15469,0.038,551
2019-07-15T12:20:54,42.805,6.029,CST-1368DR,8649,12098,15468,0.038,551
2019-07-15T12:23:56,42.805,6.029,CST-1368DR,8648,12095,15465,0.039,551
2019-07-15T12:26:57,42.805,6.029,CST-1368DR,8648,12096,15467,0.038,551
2019-07-15T12:29:59,42.805,6.029,CST-1368DR,8648,12088,15457,0.041,551
2019-07-15T12:33:01,42.805,6.029,CST-1368DR,8648,12093,15463,0.039,551
2019-07-15T12:36:02,42.805,6.029,CST-1368DR,8648,12096,15467,0.038,551
2019-07-15T12:39:04,42.805,6.029,CST-1368DR,8648,12091,15460,0.040,551
2019-07-15T12:42:06,42.805,6.029,CST-1368DR,8648,12093,15463,0.039,551
2019-07-15T12:45:07,42.805,6.029,CST-1368DR,8648,12090,15459,0.040,550
2019-07-15T12:48:09,42.805,6.029,CST-1368DR,8648,12088,15458,0.041,550
2019-07-15T12:51:10,42.805,6.029,CST-1368DR,8648,12094,15465,0.039,551
2019-07-15T12:54:12,42.805,6.029,CST-1368DR,8648,12094,15465,0.039,551
2019-07-15T12:57:14,42.805,6.029,CST-1368DR,8648,12083,15451,0.042,551
2019-07-15T13:00:15,42.805,6.029,CST-1368DR,8648,12091,15461,0.040,551
2019-07-15T13:03:17,42.805,6.029,CST-1368DR,8648,12096,15468,0.038,551
2019-07-15T13:06:19,42.805,6.029,CST-1368DR,8647,12093,15465,0.039,551
2019-07-15T13:09:20,42.805,6.029,CST-1368DR,8647,12090,15461,0.040,551
2019-07-15T13:12:22,42.805,6.029,CST-1368DR,8647,12092,15464,0.039,551
2019-07-15T13:15:24,42.805,6.029,CST-1368DR,8647,12090,15461,0.040,551
2019-07-15T13:18:25,42.805,6.029,CST-1368DR,8648,12096,15467,0.038,551
2019-07-15T13:21:27,42.805,6.029,CST-1368DR,8647,12093,15465,0.039,551
2019-07-15T13:24:29,42.805,6.029,CST-1368DR,8648,12097,15469,0.038,551
2019-07-15T13:27:30,42.805,6.029,CST-1368DR,8648,12097,15468,0.038,551
2019-07-15T13:30:32,42.805,6.029,CST-1368DR,8648,12094,15465,0.039,551
2019-07-15T13:33:34,42.805,6.029,CST-1368DR,8648,12095,15465,0.039,551
2019-07-15T13:36:35,42.805,6.029,CST-1368DR,8647,12077,15444,0.044,551
2019-07-15T13:39:37,42.805,6.029,CST-1368DR,8648,12096,15467,0.038,551
2019-07-15T13:42:39,42.805,6.029,CST-1368DR,8647,12094,15467,0.038,551
2019-07-15T13:45:40,42.805,6.029,CST-1368DR,8648,12094,15465,0.039,551
2019-07-15T13:48:42,42.805,6.029,CST-1368DR,8647,12092,15464,0.039,551
2019-07-15T13:51:44,42.805,6.029,CST-1368DR,8648,12098,15470,0.038,550
2019-07-15T13:54:45,42.805,6.029,CST-1368DR,8648,12095,15466,0.039,550
2019-07-15T13:57:47,42.805,6.029,CST-1368DR,8647,12094,15466,0.039,551
2019-07-15T14:00:49,42.805,6.029,CST-1368DR,8647,12093,15465,0.039,550
2019-07-15T14:03:50,42.805,6.029,CST-1368DR,8647,12094,15467,0.038,551
2019-07-15T14:06:52,42.805,6.029,CST-1368DR,8647,12094,15467,0.038,551
2019-07-15T14:09:54,42.805,6.029,CST-1368DR,8647,12092,15464,0.039,551
2019-07-15T14:12:55,42.805,6.029,CST-1368DR,8647,12093,15466,0.039,551
2019-07-15T14:15:57,42.805,6.029,CST-1368DR,8647,12089,15460,0.040,551
2019-07-15T14:18:59,42.805,6.029,CST-1368DR,8647,12094,15467,0.038,551
2019-07-15T14:22:00,42.805,6.029,CST-1368DR,8647,12096,15469,0.038,551
2019-07-15T14:25:02,42.805,6.029,CST-1368DR,8647,12092,15464,0.039,551
2019-07-15T14:28:04,42.805,6.029,CST-1368DR,8647,12095,15467,0.038,551
2019-07-15T14:31:05,42.805,6.029,CST-1368DR,8647,12092,15464,0.039,550
2019-07-15T14:34:07,42.805,6.029,CST-1368DR,8647,12090,15462,0.040,550
2019-07-15T14:37:09,42.805,6.029,CST-1368DR,8647,12095,15467,0.038,551
2019-07-15T14:40:10,42.805,6.029,CST-1368DR,8647,12093,15466,0.039,551
2019-07-15T14:43:12,42.805,6.029,CST-1368DR,8647,12094,15467,0.038,551
2019-07-15T14:46:14,42.805,6.029,CST-1368DR,8647,12094,15466,0.039,551
2019-07-15T14:49:15,42.805,6.029,CST-1368DR,8647,12092,15464,0.039,551
2019-07-15T14:52:17,42.805,6.029,CST-1368DR,8647,12093,15465,0.039,551
2019-07-15T14:55:18,42.805,6.029,CST-1368DR,8647,12095,15467,0.038,551
2019-07-15T14:58:20,42.805,6.029,CST-1368DR,8647,12097,15471,0.037,550
2019-07-15T15:01:22,42.805,6.029,CST-1368DR,8647,12092,15464,0.039,551
2019-07-15T15:04:23,42.805,6.029,CST-1368DR,8647,12096,15469,0.038,551
2019-07-15T15:07:25,42.805,6.029,CST-1368DR,8647,12095,15467,0.038,551
2019-07-15T15:10:27,42.805,6.029,CST-1368DR,8646,12091,15464,0.039,551
2019-07-15T15:13:28,42.805,6.029,CST-1368DR,8646,12093,15467,0.038,551
2019-07-15T15:16:30,42.805,6.029,CST-1368DR,8646,12086,15457,0.041,551
2019-07-15T15:19:32,42.805,6.029,CST-1368DR,8646,12093,15467,0.038,551
2019-07-15T15:22:33,42.805,6.029,CST-1368DR,8646,12091,15464,0.039,551
2019-07-15T15:25:35,42.805,6.029,CST-1368DR,8646,12091,15464,0.039,550
2019-07-15T15:28:37,42.805,6.029,CST-1368DR,8646,12097,15472,0.037,550
2019-07-15T15:31:38,42.805,6.029,CST-1368DR,8647,12096,15469,0.038,551
2019-07-15T15:34:40,42.805,6.029,CST-1368DR,8647,12096,15469,0.038,551
2019-07-15T15:37:42,42.805,6.029,CST-1368DR,8646,12078,15448,0.043,551
2019-07-15T15:40:43,42.805,6.029,CST-1368DR,8647,12094,15466,0.039,551
2019-07-15T15:43:45,42.805,6.029,CST-1368DR,8647,12095,15467,0.038,551
2019-07-15T15:46:47,42.805,6.029,CST-1368DR,8647,12095,15468,0.038,551
2019-07-15T15:49:48,42.805,6.029,CST-1368DR,8647,12093,15466,0.039,551
2019-07-15T15:52:50,42.805,6.029,CST-1368DR,8647,12094,15467,0.038,551
2019-07-15T15:55:51,42.805,6.029,CST-1368DR,8647,12097,15470,0.038,550
2019-07-15T15:58:53,42.805,6.029,CST-1368DR,8647,12096,15469,0.038,551
2019-07-15T16:01:55,42.805,6.029,CST-1368DR,8647,12092,15464,0.039,550
2019-07-15T16:04:56,42.805,6.029,CST-1368DR,8647,12097,15470,0.038,550
2019-07-15T16:07:58,42.805,6.029,CST-1368DR,8647,12096,15469,0.038,551
2019-07-15T16:11:00,42.805,6.029,CST-1368DR,8647,12091,15462,0.040,551
2019-07-15T16:14:01,42.805,6.029,CST-1368DR,8647,12094,15467,0.038,551
2019-07-15T16:17:03,42.805,6.029,CST-1368DR,8647,12095,15467,0.038,551
2019-07-15T16:20:04,42.805,6.029,CST-1368DR,8647,12094,15467,0.038,551
2019-07-15T16:23:06,42.805,6.029,CST-1368DR,8647,12093,15465,0.039,550
2019-07-15T16:26:08,42.805,6.029,CST-1368DR,8647,12093,15466,0.039,551
2019-07-15T16:29:09,42.805,6.029,CST-1368DR,8647,12094,15467,0.038,551
2019-07-15T16:32:11,42.805,6.029,CST-1368DR,8647,12095,15468,0.038,551
2019-07-15T16:35:13,42.805,6.029,CST-1368DR,8647,12096,15469,0.038,551
2019-07-15T16:38:14,42.805,6.029,CST-1368DR,8647,12084,15454,0.042,551